User: anonymous
Location: Caltech
(34.1382°N, 118.1253°W)
Time: 07:53:01
(UTC-07:00)
Language:

OPAL - Orbit

View from above orbital plane
View from above orbital plane
View from above satellite
View from above satellite

Ground track
Ground track

The orbit data is extracted from the following two-line orbital elements,

1 26063U 00004C   14110.62127030  .00000310  00000-0  12524-3 0  9440
2 26063 100.2022 246.1532 0036033 320.8434 039.0140 14.36345889745754
Epoch (UTC): 20 April 2014 14:54:37
Eccentricity: 0.0036033
inclination: 100.2022°
perigee height: 745 km
apogee height: 796 km
right ascension of ascending node: 246.1532°
argument of perigee: 320.8434°
revolutions per day: 14.36345889
mean anomaly at epoch: 39.0140°
orbit number at epoch: 74575

The dashed part of the orbit path shows where the satellite is in the earth's shadow,  

DLR